Theta_e
343 344 346 346 345 345 345 344 342 341 339 338 338 338 338 338 338 337 336 335 335 335 335 334 334 334 333 333 333 333 334 334 334 333 334 334 334 334 334 334 333 333 333 332 333 331 329 327 325 323 322 322
339 342 344 344 343 343 343 343 343 341 339 338 338 338 338 337 337 337 336 336 335 335 334 335 335 334 334 333 333 333 333 332 331 331 334 333 333 333 333 332 332 333 333 333 331 330 329 328 326 324 323 321
336 336 340 341 341 341 342 343 341 340 337 337 337 337 335 334 333 332 334 335 335 335 334 334 334 334 335 333 332 332 331 331 330 331 333 332 333 332 331 330 331 331 332 332 331 329 327 324 322 321 322 322
336 333 333 338 338 339 340 340 339 336 333 331 330 329 328 326 326 325 325 325 326 329 331 330 329 333 333 332 331 332 330 330 330 331 332 332 331 329 328 328 328 330 330 330 329 327 325 322 320 321 321 320
337 333 330 332 332 334 337 336 334 333 326 323 322 322 320 322 324 323 323 322 321 320 323 324 326 331 332 331 331 330 329 329 328 331 330 329 329 327 326 323 323 325 329 329 327 325 322 319 320 319 319 319
338 334 333 334 334 335 334 330 327 326 326 325 322 319 321 322 321 322 322 322 323 320 322 323 323 327 331 331 331 330 329 328 329 330 329 328 328 326 325 320 314 314 319 323 324 321 318 318 317 316 316 316
337 336 336 335 335 335 330 330 329 327 325 323 322 321 321 320 320 321 321 321 321 321 320 322 322 326 328 330 329 329 329 327 329 329 328 327 326 325 321 313 311 311 311 313 316 316 316 315 314 314 314 313
337 337 337 335 336 336 335 332 330 328 325 323 322 322 320 320 321 321 319 321 321 320 319 321 321 323 325 326 325 326 326 327 328 327 326 326 324 317 313 311 310 309 308 310 312 314 314 313 312 312 311 311
338 338 338 337 337 336 335 335 332 329 325 323 322 323 321 323 321 319 318 318 317 317 316 317 318 318 318 317 316 318 315 317 318 317 313 310 309 308 308 307 307 307 307 308 310 311 312 312 311 310 310 310
337 338 338 337 338 337 336 336 334 330 326 323 323 326 327 322 320 318 317 317 316 315 315 314 314 315 314 314 314 314 314 313 312 309 308 308 306 306 306 306 306 305 305 306 307 308 309 310 309 309 308 308
337 339 339 338 338 337 336 337 335 332 330 325 326 329 326 322 319 317 317 316 315 314 313 312 312 311 311 312 312 312 312 310 309 306 306 306 306 305 305 304 304 304 304 305 306 306 307 308 308 308 307 307
338 339 338 338 336 337 335 336 336 334 333 330 329 331 328 323 320 318 317 316 315 314 312 311 310 309 308 309 310 310 310 309 306 307 306 306 305 305 304 304 303 303 303 303 305 305 306 306 307 307 306 306
337 338 337 338 337 337 333 337 337 336 335 333 332 333 330 325 321 319 318 316 315 313 312 311 310 309 307 306 308 307 307 307 307 307 306 305 304 303 302 301 301 301 301 302 302 303 303 304 305 306 306 305
336 337 337 337 338 338 334 337 337 336 335 335 333 333 332 327 323 320 319 317 315 313 312 313 311 309 307 306 305 306 307 307 308 306 305 304 303 301 300 299 300 299 299 299 300 300 300 301 302 303 304 304
335 336 337 336 338 338 336 337 336 336 336 335 334 333 333 329 325 322 321 319 315 313 314 315 311 309 308 306 306 306 307 309 308 307 306 304 301 299 299 298 298 297 297 297 298 298 298 298 299 300 302 303
332 332 335 335 337 337 338 337 336 336 335 333 334 333 332 331 327 323 324 322 317 316 316 316 312 309 309 308 308 308 309 309 308 307 305 303 301 299 298 297 296 296 296 295 295 296 296 296 297 297 298 300
332 330 331 334 335 336 336 337 337 336 335 335 334 333 333 332 329 326 325 325 321 318 320 316 313 311 310 309 309 309 310 309 308 306 303 302 301 299 298 296 295 296 294 294 293 294 294 295 294 294 295 295
330 330 328 332 334 333 335 336 336 335 336 335 334 333 333 333 331 328 328 327 324 323 323 317 314 313 312 310 310 311 310 309 307 304 302 301 300 300 297 295 294 294 293 292 292 292 292 293 293 293 293 292
330 329 327 329 332 333 334 333 335 336 336 335 334 334 333 333 331 329 328 328 326 325 324 318 316 315 314 312 311 311 310 309 306 303 301 301 299 298 296 295 294 293 293 292 292 292 292 292 292 292 292 292
329 328 326 328 327 331 331 332 333 334 336 336 335 335 334 333 332 330 330 328 328 326 325 320 318 317 316 313 312 311 309 308 305 303 302 301 299 296 295 295 294 294 293 292 291 291 291 291 292 290 290 291
326 327 325 325 329 330 330 330 331 331 333 335 335 335 335 334 332 331 331 329 329 327 326 323 320 317 317 314 312 310 309 307 305 303 302 300 299 298 296 295 294 293 293 292 291 291 290 290 291 290 290 290
325 325 325 323 325 327 329 329 330 330 331 332 334 335 334 334 333 332 332 331 329 328 327 325 322 319 317 314 313 311 309 307 306 303 302 300 299 298 297 295 294 293 293 293 292 291 290 290 289 289 289 290
322 322 321 319 321 323 327 327 328 329 330 331 333 334 335 334 333 331 332 331 330 329 327 326 323 319 317 315 313 311 309 307 306 304 303 300 299 299 298 296 294 294 294 293 291 290 289 290 290 290 290 289
320 320 320 319 315 317 322 325 324 326 329 329 331 333 334 333 334 332 332 331 330 330 327 326 323 321 318 315 314 312 309 308 306 304 302 300 299 297 296 295 295 295 293 291 290 290 289 289 290 289 289 288
320 320 318 318 319 319 319 323 323 323 324 326 328 330 332 332 332 332 331 330 330 329 325 326 324 322 318 317 314 312 310 309 307 305 302 301 299 297 295 295 295 294 292 290 288 288 288 288 289 291 289 288
322 322 322 321 321 320 316 318 321 322 321 324 324 325 328 329 331 331 331 328 330 328 328 327 324 322 319 317 315 314 312 310 307 304 301 300 298 298 296 293 294 293 292 290 287 285 285 287 288 289 289 288
322 322 321 320 316 319 312 312 317 320 317 317 321 322 323 325 327 328 329 330 328 329 328 327 325 322 320 317 316 313 311 309 306 304 301 299 298 296 296 295 294 293 293 290 289 288 286 285 284 287 287 288
321 319 314 313 311 313 315 312 310 314 312 316 317 319 320 321 324 326 327 327 327 327 328 328 325 322 320 318 316 315 311 308 306 304 302 300 299 297 293 294 293 295 296 295 290 287 288 286 286 284 284 284
314 313 311 310 309 308 308 308 310 309 310 315 317 318 319 320 319 323 326 327 327 324 325 326 325 323 320 318 316 315 312 309 307 304 303 301 299 297 296 293 293 293 295 293 295 292 286 284 286 286 284 283
313 313 313 311 311 310 310 311 309 313 315 314 315 318 318 317 317 318 319 324 326 326 324 325 325 323 321 319 317 315 314 311 308 305 302 301 300 298 299 296 293 292 293 294 293 295 295 291 290 287 282 284
312 312 312 313 314 313 313 313 312 309 308 312 312 313 312 314 312 314 317 317 322 326 324 324 323 322 321 320 318 315 314 310 308 305 303 302 301 300 300 298 294 293 292 294 294 295 296 295 294 289 284 282
Wind_Speed
9 9 10 11 11 12 12 14 14 13 13 13 13 13 13 12 11 10 11 11 11 11 10 10 11 10 12 12 13 14 15 15 15 16 15 13 14 13 14 15 16 15 15 15 13 14 14 13 12 11 8 6
9 9 11 11 11 11 11 13 13 12 12 12 12 11 10 10 10 11 11 11 12 11 11 10 10 12 12 13 14 14 15 15 15 15 13 13 12 13 14 15 15 16 16 16 14 12 13 13 12 11 9 5
5 10 10 11 11 11 11 11 12 12 10 10 11 11 10 9 9 9 10 10 10 10 9 9 9 11 11 13 14 15 14 15 14 14 12 12 12 13 14 15 15 15 15 14 14 13 13 13 12 12 7 5
4 7 10 11 12 11 11 11 11 12 11 10 11 10 10 11 9 9 9 11 9 10 10 9 7 8 9 13 13 14 14 14 14 13 12 12 12 13 14 15 14 12 13 13 13 13 14 13 11 7 5 5
4 6 10 8 11 12 11 11 12 12 12 10 10 10 10 9 7 6 6 7 6 9 7 9 9 8 10 13 13 13 13 14 13 12 12 12 13 13 12 11 12 13 11 12 12 13 13 12 8 6 6 6
5 5 7 6 6 6 9 11 11 9 8 8 6 9 7 5 5 5 5 5 7 6 7 8 10 9 9 12 10 11 13 14 13 12 12 12 12 12 10 11 7 7 9 12 13 13 13 9 6 6 6 6
6 6 6 6 6 7 8 8 9 7 7 7 7 5 5 5 5 5 4 5 6 6 10 9 10 9 9 9 9 11 12 13 13 13 13 12 11 9 9 7 6 6 6 7 11 11 9 6 6 6 7 6
7 6 6 6 6 7 7 7 6 7 7 7 7 6 6 5 5 6 5 8 11 9 7 8 10 10 9 9 9 10 7 11 11 13 12 10 7 6 5 6 6 6 6 6 6 7 7 6 6 7 6 5
7 7 7 6 6 6 7 7 7 7 7 7 7 7 6 6 6 6 6 5 5 5 6 6 6 5 5 5 5 7 4 5 5 5 5 4 6 5 6 6 6 6 6 6 6 6 6 6 6 6 6 6
8 9 7 7 7 7 7 7 7 7 7 7 8 7 6 7 7 6 6 6 6 5 5 6 5 5 6 5 5 4 5 5 4 4 4 5 6 5 5 6 6 5 5 6 6 6 6 6 6 6 6 6
7 8 7 8 8 8 7 7 8 7 7 8 8 7 8 8 7 7 6 6 7 6 5 6 6 6 6 6 6 5 6 5 4 5 6 6 5 5 6 5 6 6 5 5 6 7 6 6 6 6 5 6
8 8 8 8 8 8 9 9 8 9 8 8 8 7 8 9 8 8 7 7 7 7 6 6 6 6 6 6 6 6 6 6 4 5 6 6 5 6 5 6 5 6 5 6 6 7 6 6 6 5 5 5
8 8 8 8 9 9 9 9 9 9 8 8 8 7 9 9 9 8 8 8 7 7 7 6 6 6 6 6 6 6 6 5 5 6 6 6 6 6 6 6 6 6 5 5 6 6 6 5 5 5 6 5
9 9 9 9 9 9 9 9 9 9 8 8 8 7 8 10 9 9 9 9 8 9 8 7 6 6 6 7 6 6 7 5 6 6 6 6 6 6 6 6 5 6 5 6 5 6 6 6 5 5 5 5
9 9 9 9 9 9 9 9 9 8 8 8 8 8 8 9 10 9 9 9 10 8 8 7 7 7 6 7 7 6 6 5 6 6 6 6 6 6 6 6 5 6 6 5 6 5 6 5 5 5 5 5
7 9 9 10 9 9 9 9 8 9 8 8 8 8 8 9 9 9 9 10 9 9 8 8 8 8 7 7 7 7 6 6 6 6 6 6 6 6 6 6 6 5 6 6 5 5 6 5 6 5 5 6
8 7 7 9 9 9 9 9 8 8 9 8 8 8 9 9 9 9 9 9 11 9 9 9 9 8 8 7 7 6 7 7 6 6 7 6 6 7 7 7 6 5 6 6 5 5 4 6 5 4 5 5
8 7 7 8 8 8 9 8 8 8 8 8 8 8 10 10 10 9 9 9 10 9 8 9 10 9 8 7 8 7 7 7 7 7 7 7 7 6 7 7 6 7 7 5 5 5 4 5 4 6 6 5
9 7 8 8 8 9 9 8 8 8 7 8 8 8 9 10 9 9 8 8 9 9 8 9 9 9 9 8 8 7 7 8 7 7 8 7 8 6 6 6 6 6 7 7 7 5 5 5 5 5 5 5
9 9 8 8 7 8 8 8 8 8 8 8 8 8 9 10 10 10 9 9 8 9 8 9 9 9 9 10 8 7 7 8 8 7 7 6 8 8 6 6 5 5 7 6 7 5 5 4 4 5 5 5
9 8 8 7 8 8 8 8 7 7 8 8 8 8 9 10 10 11 10 9 9 8 9 9 9 8 10 10 9 8 8 8 7 8 8 7 6 7 8 7 6 4 5 6 6 6 6 4 4 4 5 5
9 8 8 6 7 7 8 8 7 7 7 8 8 9 9 10 10 11 10 10 10 8 9 9 9 8 9 10 10 9 9 8 8 7 9 8 6 7 8 8 9 7 6 5 6 6 6 5 5 4 4 4
7 7 6 5 7 7 7 7 7 8 8 8 9 9 10 11 10 10 10 10 10 9 8 8 8 9 10 9 10 10 9 8 8 8 8 10 7 5 5 8 8 8 7 5 5 6 5 6 5 4 4 4
7 7 8 8 5 6 7 7 7 8 9 7 8 9 11 11 10 10 10 10 9 10 9 9 9 9 9 9 10 11 10 9 9 11 10 9 11 9 5 4 6 8 9 6 6 5 6 5 5 5 4 4
9 10 7 6 9 10 8 8 8 8 7 8 8 9 10 10 9 10 10 10 10 9 9 9 9 10 10 10 10 11 13 14 14 12 12 11 9 12 9 5 7 7 8 10 5 5 5 5 4 4 4 4
11 11 12 13 12 9 7 8 9 9 8 9 8 8 7 8 8 10 10 9 9 9 10 9 9 10 11 11 10 11 11 11 11 11 9 10 8 4 10 9 10 9 9 3 7 8 4 2 3 3 4 4
12 11 8 9 6 8 5 3 6 6 6 5 7 7 7 7 7 8 9 11 12 10 10 11 11 11 10 11 10 9 6 6 7 9 12 13 13 10 5 5 8 11 8 5 3 4 7 3 3 1 1 0
8 6 4 3 3 4 5 5 4 4 4 6 6 8 8 8 7 7 8 8 9 10 13 14 11 9 10 11 11 12 12 11 11 10 8 9 10 13 11 7 10 10 8 5 12 6 3 4 3 1 8 6
5 5 4 4 3 3 3 3 5 5 5 7 8 8 8 10 7 7 8 8 9 8 8 9 10 11 11 11 11 10 10 12 13 14 15 16 13 13 14 11 9 10 10 10 10 6 7 2 1 7 3 8
7 8 8 8 8 8 8 9 7 12 14 11 11 13 7 6 7 7 6 7 10 10 10 10 10 11 11 12 11 11 10 11 11 13 12 13 13 15 13 15 12 12 12 11 14 9 2 6 8 8 6 9
8 8 8 11 11 10 11 12 10 5 3 7 6 4 7 7 6 7 7 6 8 13 12 11 11 11 12 12 12 11 10 10 12 12 13 12 13 14 12 10 12 15 14 8 11 9 5 3 1 10 12 6
Wind_Direction
143 138 136 141 140 135 134 131 129 129 128 127 126 126 124 119 113 112 113 110 108 107 106 109 110 106 108 112 109 107 106 103 105 109 99 83 79 74 68 63 59 58 61 64 62 77 81 77 71 67 66 68
141 139 135 141 138 136 138 134 130 129 131 128 125 120 116 116 115 114 112 107 107 105 99 94 98 103 104 107 110 110 105 106 107 110 93 88 82 74 66 60 58 60 65 71 71 69 71 71 67 65 58 57
134 141 136 139 141 141 141 134 132 127 121 119 119 120 118 112 107 103 99 95 94 94 87 88 98 106 110 115 115 110 112 112 111 110 98 90 81 71 65 61 59 61 64 67 71 70 72 71 68 63 61 58
132 138 133 141 146 143 139 133 126 124 122 119 115 112 110 106 100 94 92 93 90 88 88 88 94 101 111 118 120 116 117 115 116 113 99 92 82 72 65 59 54 56 72 74 72 71 69 63 57 55 54 53
139 139 131 132 145 143 136 131 131 126 120 116 117 115 112 106 103 102 96 91 96 89 92 94 96 106 117 124 123 119 118 122 120 112 100 93 84 74 63 55 51 55 63 75 72 69 66 62 56 49 48 47
147 144 137 133 136 138 137 134 130 129 131 125 125 121 115 111 108 104 102 101 99 95 94 93 95 103 117 119 116 124 125 125 124 115 106 95 86 77 64 52 49 46 55 64 72 66 62 59 54 46 46 44
153 154 146 143 138 136 139 140 138 137 137 137 139 137 127 121 113 108 104 104 102 103 100 100 100 105 111 115 120 126 127 128 128 119 109 100 91 73 52 50 51 51 46 46 53 59 58 58 53 52 47 43
158 160 152 148 143 145 147 151 146 147 151 150 150 146 141 129 121 107 100 104 102 100 99 97 95 97 98 101 104 109 117 127 125 116 107 93 68 54 59 59 51 53 50 51 56 64 62 58 52 51 46 44
164 164 157 159 155 155 155 158 156 157 158 161 160 154 148 139 126 121 120 115 106 104 109 109 112 106 102 100 92 91 92 95 100 94 84 54 54 52 62 64 54 54 57 52 60 64 64 60 53 52 47 42
164 164 165 166 165 162 164 163 162 164 166 169 170 164 145 136 131 132 130 129 123 121 125 124 127 128 125 118 116 113 116 120 121 101 67 82 78 72 73 80 74 62 66 70 66 68 64 62 58 55 49 45
162 175 173 171 172 168 172 168 165 173 175 178 179 165 149 146 146 143 142 137 139 141 141 141 142 140 141 138 136 140 137 146 138 92 95 87 90 87 84 76 76 70 65 70 82 76 70 67 64 60 53 52
171 176 174 172 172 180 174 172 175 178 179 181 185 165 158 151 153 152 149 149 150 153 152 155 154 148 141 145 149 152 153 154 115 105 105 102 91 89 86 86 77 75 66 65 74 83 75 69 66 60 60 58
177 175 179 171 177 184 175 180 180 181 179 183 187 167 161 157 155 157 154 157 160 157 160 163 161 157 153 151 161 159 165 151 125 122 117 112 108 102 94 91 86 84 73 70 67 79 80 73 66 63 61 57
176 178 180 179 179 182 175 185 180 178 184 187 182 181 167 165 161 164 161 161 164 163 168 167 168 163 160 159 167 169 168 153 135 132 120 117 114 107 104 98 99 96 87 77 76 75 83 71 69 67 64 60
179 177 181 181 181 179 182 183 178 182 186 184 187 185 171 170 169 166 165 164 166 172 168 168 168 171 165 164 172 172 168 148 145 136 132 133 128 121 115 111 109 105 98 90 81 82 83 81 77 67 63 66
181 179 182 180 181 183 183 178 183 184 186 186 187 183 181 177 173 172 170 167 169 172 170 169 171 172 170 175 175 174 157 152 146 138 133 128 123 123 116 115 104 102 104 94 94 89 89 87 82 77 70 71
193 181 178 181 184 181 179 180 182 187 187 187 183 183 184 184 178 179 173 172 174 175 171 168 170 173 177 174 173 170 152 150 141 130 129 126 125 120 116 113 110 100 94 102 98 94 90 93 85 82 80 73
192 191 178 181 181 179 178 179 184 188 186 185 183 184 188 185 186 184 182 171 176 174 171 170 173 173 177 173 168 158 151 151 148 141 138 142 131 132 129 127 130 120 109 101 95 88 98 88 97 93 79 74
194 190 179 176 176 178 178 179 184 186 186 184 188 183 189 189 188 188 187 182 171 178 169 171 174 173 175 169 162 155 159 150 149 144 147 148 136 133 125 128 132 127 127 124 110 107 104 106 101 89 94 80
191 188 181 177 176 173 175 175 181 185 187 186 185 187 187 190 187 189 190 188 179 177 174 172 175 176 166 164 156 154 154 149 154 150 145 150 142 133 130 130 125 123 124 119 116 111 97 96 92 97 93 92
189 183 176 173 175 176 176 179 180 179 184 186 186 186 187 188 187 190 190 190 186 182 180 175 174 172 167 162 158 157 158 158 158 152 148 147 147 141 142 137 130 120 121 119 118 113 98 75 86 86 99 101
183 185 174 166 171 174 182 184 180 180 180 190 190 186 189 187 187 190 189 189 189 188 187 181 176 171 166 163 159 158 161 164 156 153 152 149 152 150 146 146 147 142 133 123 119 109 104 93 74 65 75 85
174 172 174 164 165 180 187 187 185 181 190 192 189 193 188 188 188 189 188 187 189 190 185 185 180 170 168 164 162 159 162 157 161 158 160 154 142 128 138 155 152 144 132 115 104 100 99 95 87 75 73 76
174 176 181 184 183 188 199 191 186 189 192 187 194 192 189 188 188 186 189 186 188 190 184 182 181 175 171 170 164 165 165 168 168 166 159 161 152 145 122 110 131 130 123 101 89 88 76 78 92 88 87 83
182 186 189 196 200 203 189 191 187 187 188 188 192 189 188 186 186 184 187 191 186 191 188 186 180 178 178 177 175 175 179 178 177 172 167 157 156 153 144 142 149 153 141 126 84 63 70 60 63 87 94 89
193 196 196 193 200 194 177 181 185 194 190 190 186 185 183 186 186 187 189 190 193 192 189 187 184 186 183 179 184 187 185 178 171 162 153 149 140 161 157 161 171 167 142 158 164 146 128 50 49 81 96 111
200 200 198 194 192 183 175 193 193 186 185 178 183 188 185 181 185 187 193 193 191 194 195 193 185 187 184 184 177 171 160 156 162 170 164 166 160 154 160 149 177 177 188 132 123 109 103 171 146 204 82 343
202 190 167 152 134 162 156 176 161 155 148 176 176 193 192 193 185 191 195 194 198 198 192 188 186 184 184 185 183 182 173 170 170 164 169 178 171 157 153 166 191 204 187 148 142 164 190 154 150 152 225 174
160 134 135 122 78 94 87 60 136 148 187 190 188 185 195 199 184 197 209 206 203 200 199 192 182 180 183 182 183 183 177 177 178 178 179 179 173 175 166 173 184 200 203 196 212 147 128 93 231 219 148 135
161 171 166 161 164 173 186 198 182 194 197 190 192 200 187 178 183 188 208 215 209 208 199 199 191 185 182 185 184 188 186 182 178 184 180 183 179 184 186 174 173 191 210 210 217 240 250 174 175 173 175 142
167 174 181 187 193 195 197 201 215 211 179 187 199 170 184 194 189 192 195 213 222 204 199 197 194 191 189 187 187 185 181 182 186 185 184 181 188 190 181 173 185 191 194 202 234 239 271 328 312 140 140 190